Location: Alta
(39.2070°N, 120.8111°W)
Time: 10:55:21
(UTC+00:00)

KAITUO 1B - Pass Details

Date: 30 March 2023
Orbit: 430 x 445 km, 97.4° (Epoch: 02 June)

Event Time Altitude Azimuth Distance (km) Brightness Sun altitude
Rises 02:43:56 0° 192° (SSW) 2,388 ? -4.6°
Reaches altitude 10° 02:46:09 10° 205° (SSW) 1,530 ? -5.1°
Maximum altitude 02:48:55 25° 263° (W) 912 ? -5.6°
Drops below altitude 10° 02:51:44 10° 322° (NW) 1,554 ? -6.1°
Sets 02:54:01 0° 336° (NNW) 2,436 ? -6.6°
